Regional Weather Roundup
Issued by NWS

Home | Current Version | Previous Version | Graphics & Text | Print | Product List | Glossary On
Versions: 1 2 3 4 5 6 7 8 9 10 11 12 13 14 15 16 17 18 19 20 21 22 23 24 25 26 27 28 29 30 31 32 33 34 35 36 37 38 39 40 41 42 43 44 45 46 47 48 49 50
000
ASUS43 KIND 280559
RWRIN

WEATHER ROUNDUP FOR INDIANA
NATIONAL WEATHER SERVICE INDIANAPOLIS IN
200 AM EDT SAT MAY 28 2016

NOTE: "FAIR" INDICATES FEW OR NO CLOUDS BELOW 12,000 FEET WITH NO
SIGNIFICANT WEATHER AND/OR OBSTRUCTIONS TO VISIBILITY.

* - STATION DOES NOT REPORT WEATHER SUCH AS PRECIPITATION OR FOG.

+ - STATION NOT QUALITY CONTROLLED BY THE NATIONAL WEATHER SERVICE.
    USE DATA WITH CAUTION...ESPECIALLY DEWPOINT AND RELATIVE
    HUMIDITY OBSERVATIONS.

INZ001>003-010>013-019-020-280700-
NORTHWEST INDIANA

CITY           SKY/WX    TMP DP  RH WIND       PRES   REMARKS
RENSSELAER +   CLOUDY    68  66  94 SE6       29.91F

$$

LMZ046-743>745-280700-
SOUTHERN LAKE MICHIGAN

STATION/POSITION TIME  TEMP    WIND        PRES    WAVE
                       AIR SEA DIR/SP/G            HT
                 (UTC) (F)     (DEG/KT/KT) (MB)    (FT)
BURNS HARBOR     0501   70     180/  9/ 22 1012.9F
MICHIGAN CITY    0500   71     160/ 11/ 13   N/A
5NW MICH CITY    0500   66 58  200/ 10/ 12   N/A     1

$$

INZ004-005-014>016-021>024-280700-
NORTH CENTRAL INDIANA

CITY           SKY/WX    TMP DP  RH WIND       PRES   REMARKS
GOSHEN         CLOUDY    73  58  59 SE9       29.95S
6HR MIN TEMP:  73; 6HR MAX TEMP:  81;

SOUTH BEND     CLOUDY    70  64  81 S7        29.94F
6HR MIN TEMP:  69; 6HR MAX TEMP:  73;


$$

INZ006>009-017-018-025>027-280700-
NORTHEAST INDIANA

CITY           SKY/WX    TMP DP  RH WIND       PRES   REMARKS
ANGOLA *+        N/A     70  63  78 S3        29.98S
FORT WAYNE     PTCLDY    71  62  73 S8        29.98F
6HR MIN TEMP:  71; 6HR MAX TEMP:  83;


$$

INZ028-029-035-036-043>045-051>053-280700-
WEST CENTRAL INDIANA

CITY           SKY/WX    TMP DP  RH WIND       PRES   REMARKS
CRAWFORDSVL +  MOCLDY    70  62  77 SE8       29.94S
6HR MIN TEMP:  68; 6HR MAX TEMP:  77;

GREENCASTLE +  CLOUDY    68  64  88 SE7       29.95S
LAFAYETTE      PTCLDY    69  65  86 SE3       29.92F
6HR MIN TEMP:  68; 6HR MAX TEMP:  80; 6HR PCP: TRACE;

TERRE HAUTE    CLOUDY    71  62  73 SE7       29.92F
6HR MIN TEMP:  70; 6HR MAX TEMP:  81;


$$

INZ030>032-037>040-046>048-054>057-064-065-280700-
CENTRAL INDIANA

CITY           SKY/WX    TMP DP  RH WIND       PRES   REMARKS
INDIANAPOLIS   MOCLDY    74  63  68 SE9       29.94F
6HR MIN TEMP:  74; 6HR MAX TEMP:  81;

-EAGLE CREEK   CLOUDY    76  62  62 SE7       29.95F
6HR MIN TEMP:  76; 6HR MAX TEMP:  82;

KOKOMO *+      MOCLDY    72  59  64 S8        29.96S
6HR MIN TEMP:  72; 6HR MAX TEMP:  82;

SHELBYVILLE    CLOUDY    75  64  68 SE7       29.97F
6HR MIN TEMP:  75; 6HR MAX TEMP:  84;


$$

INZ033-034-041-042-049-050-058-059-280700-
EAST CENTRAL INDIANA

CITY           SKY/WX    TMP DP  RH WIND       PRES   REMARKS
MUNCIE         CLEAR     75  63  66 S6        29.99F
6HR MIN TEMP:  75; 6HR MAX TEMP:  85;


$$

INZ060-061-067>069-081>083-085>088-280700-
SOUTHWEST INDIANA

CITY           SKY/WX    TMP DP  RH WIND       PRES   REMARKS
EVANSVILLE     CLOUDY    76  63  64 SE7       29.95R
6HR MIN TEMP:  76; 6HR MAX TEMP:  80;

HUNTINGBURG *+ CLOUDY    75  64  69 SE13      29.96S
6HR MIN TEMP:  73; 6HR MAX TEMP:  81;


$$

INZ062-063-066-070>080-084-089>092-280700-
SOUTH CENTRAL AND SOUTHEAST INDIANA

CITY           SKY/WX    TMP DP  RH WIND       PRES   REMARKS
BLOOMINGTON    CLOUDY    74  64  71 S8        29.96S
6HR MIN TEMP:  74; 6HR MAX TEMP:  81;

MADISON *+     CLOUDY    72  63  73 S10       30.02F
SEYMOUR +      CLOUDY    75  64  69 S8        29.98S

$$





USA.gov is the U.S. government's official web portal to all federal, state and local government web resources and services.